| time (UTC) | temp C | wind direction | speed KPH | gust KPH | rain 1hr cm | rain 24hr cm | rain mn cm | humidity % | barometer mb |
| 20260504044543 | 7 | 0 | 0.0 | 1.6 | 0.00 | 0.00 | 0.00 | 71 | 1012.1 |
| 20260504043040 | 7 | 0 | 0.0 | 0.0 | 0.00 | 0.00 | 0.00 | 69 | 1012.1 |
| 20260504041538 | 8 | 0 | 0.0 | 1.6 | 0.00 | 0.00 | 0.00 | 69 | 1012.1 |
| 20260504040046 | 8 | 0 | 0.0 | 3.2 | 0.00 | 0.00 | 0.00 | 68 | 1012.2 |
| 20260504034555 | 8 | 0 | 0.0 | 0.0 | 0.00 | 0.00 | 0.00 | 65 | 1012.3 |
| 20260504033050 | 9 | 0 | 0.0 | 0.0 | 0.00 | 0.00 | 0.00 | 62 | 1012.3 |
| 20260504031541 | 10 | 0 | 0.0 | 0.0 | 0.00 | 0.00 | 0.00 | 56 | 1012.4 |
| 20260504030045 | 10 | 0 | 0.0 | 0.0 | 0.00 | 0.00 | 0.00 | 58 | 1012.4 |
| 20260504024537 | 10 | 0 | 0.0 | 0.0 | 0.00 | 0.00 | 0.00 | 53 | 1012.5 |
| 20260504023057 | 10 | 0 | 0.0 | 1.6 | 0.00 | 0.00 | 0.00 | 55 | 1012.7 |
| 20260504021539 | 11 | 0 | 0.0 | 0.0 | 0.00 | 0.00 | 0.00 | 52 | 1012.7 |
| 20260504020039 | 11 | 0 | 0.0 | 4.8 | 0.00 | 0.00 | 0.00 | 52 | 1012.7 |
| 20260504014546 | 11 | 133 | 3.2 | 16.1 | 0.00 | 0.00 | 0.00 | 52 | 1012.7 |
| 20260504013044 | 11 | 208 | 4.8 | 19.3 | 0.00 | 0.00 | 0.00 | 51 | 1012.9 |
| 20260504011536 | 11 | 355 | 4.8 | 19.3 | 0.00 | 0.00 | 0.00 | 48 | 1012.9 |
| 20260504010051 | 11 | 46 | 1.6 | 19.3 | 0.00 | 0.00 | 0.00 | 48 | 1012.6 |
| 20260504004555 | 11 | 188 | 4.8 | 17.7 | 0.00 | 0.00 | 0.00 | 51 | 1012.6 |
| 20260504003039 | 11 | 182 | 3.2 | 12.9 | 0.00 | 0.00 | 0.00 | 52 | 1012.7 |
| 20260504001537 | 11 | 0 | 0.0 | 20.9 | 0.00 | 0.00 | 0.00 | 51 | 1012.3 |
| 20260504000037 | 11 | 52 | 0.0 | 4.8 | 0.00 | 0.00 | 0.00 | 51 | 1012.4 |
| 20260503234546 | 11 | 99 | 1.6 | 14.5 | 0.00 | 0.00 | 0.00 | 49 | 1012.3 |
| 20260503233039 | 11 | 55 | 8.0 | 30.6 | 0.00 | 0.00 | 0.00 | 49 | 1012.2 |
| 20260503231541 | 11 | 157 | 1.6 | 9.7 | 0.00 | 0.00 | 0.00 | 49 | 1011.6 |
| 20260503230039 | 11 | 0 | 0.0 | 0.0 | 0.00 | 0.00 | 0.00 | 48 | 1011.3 |
| 20260503224536 | 11 | 0 | 0.0 | 3.2 | 0.00 | 0.00 | 0.00 | 48 | 1011.4 |
| 20260503223036 | 11 | 0 | 0.0 | 3.2 | 0.00 | 0.00 | 0.00 | 48 | 1011.4 |
| 20260503221544 | 11 | 0 | 0.0 | 9.7 | 0.00 | 0.00 | 0.00 | 47 | 1011.6 |
| 20260503220043 | 12 | 0 | 0.0 | 4.8 | 0.00 | 0.00 | 0.00 | 46 | 1011.7 |
| 20260503214536 | 12 | 0 | 0.0 | 9.7 | 0.00 | 0.00 | 0.00 | 47 | 1011.7 |
| 20260503213051 | 12 | 159 | 1.6 | 11.3 | 0.00 | 0.00 | 0.00 | 46 | 1011.7 |
| 20260503211537 | 12 | 0 | 3.2 | 9.7 | 0.00 | 0.00 | 0.00 | 47 | 1011.8 |
| 20260503210053 | 11 | 61 | 1.6 | 11.3 | 0.00 | 0.00 | 0.00 | 48 | 1011.9 |
| 20260503204548 | 11 | 0 | 3.2 | 16.1 | 0.00 | 0.00 | 0.00 | 49 | 1012.0 |
| 20260503203037 | 11 | 207 | 4.8 | 17.7 | 0.00 | 0.00 | 0.00 | 48 | 1012.1 |
| 20260503201538 | 11 | 0 | 0.0 | 6.4 | 0.00 | 0.00 | 0.00 | 47 | 1012.2 |
| 20260503200039 | 12 | 26 | 0.0 | 14.5 | 0.00 | 0.00 | 0.00 | 49 | 1012.3 |
| 20260503194543 | 11 | 111 | 1.6 | 12.9 | 0.00 | 0.00 | 0.00 | 46 | 1012.4 |
| 20260503193049 | 11 | 5 | 1.6 | 12.9 | 0.00 | 0.00 | 0.00 | 47 | 1012.7 |
| 20260503191538 | 11 | 0 | 1.6 | 11.3 | 0.00 | 0.00 | 0.00 | 45 | 1012.6 |
| 20260503190038 | 12 | 269 | 0.0 | 11.3 | 0.00 | 0.00 | 0.00 | 42 | 1012.7 |
| 20260503184548 | 12 | 23 | 0.0 | 9.7 | 0.00 | 0.00 | 0.00 | 49 | 1012.8 |
| 20260503183057 | 12 | 53 | 1.6 | 12.9 | 0.00 | 0.00 | 0.00 | 45 | 1012.8 |
| 20260503181537 | 11 | 0 | 0.0 | 14.5 | 0.00 | 0.00 | 0.00 | 49 | 1012.8 |
| 20260503180043 | 11 | 33 | 0.0 | 9.7 | 0.00 | 0.00 | 0.00 | 45 | 1013.2 |
| 20260503174537 | 11 | 5 | 1.6 | 12.9 | 0.00 | 0.00 | 0.00 | 46 | 1013.3 |
| 20260503173101 | 11 | 21 | 1.6 | 12.9 | 0.00 | 0.00 | 0.00 | 47 | 1013.4 |
| 20260503171541 | 10 | 0 | 1.6 | 17.7 | 0.00 | 0.00 | 0.00 | 44 | 1013.5 |
| 20260503081541 | 2 | 21 | 1.6 | 3.2 | 0.00 | 0.00 | 0.00 | 83 | 1014.3 |
| 20260503071539 | 2 | 19 | 1.6 | 4.8 | 0.00 | 0.00 | 0.00 | 81 | 1014.4 |